Time,TemperatureF,DewpointF,PressureIn,WindDirection,WindDirectionDegrees,WindSpeedMPH,WindSpeedGustMPH,Humidity,HourlyPrecipIn,Conditions,Clouds,dailyrainin,SoftwareType,DateUTC
2013-05-04 00:01:00,47.5,34.0,30.55,NW,314,1.0,3.0,59,0.00,,,0.00,weatherlink.com 1.10,2013-05-04 04:01:00,
2013-05-04 00:16:00,46.6,34.0,30.54,NW,322,1.0,2.0,62,0.00,,,0.00,weatherlink.com 1.10,2013-05-04 04:16:00,
2013-05-04 00:31:00,46.1,34.0,30.54,NW,321,1.0,2.0,63,0.00,,,0.00,weatherlink.com 1.10,2013-05-04 04:31:00,
2013-05-04 00:46:00,45.9,34.0,30.54,NW,321,1.0,2.0,64,0.00,,,0.00,weatherlink.com 1.10,2013-05-04 04:46:00,
2013-05-04 01:01:00,45.4,35.0,30.54,NW,324,2.0,3.0,66,0.00,,,0.00,weatherlink.com 1.10,2013-05-04 05:01:00,
2013-05-04 01:16:00,45.6,35.0,30.53,NW,319,1.0,2.0,67,0.00,,,0.00,weatherlink.com 1.10,2013-05-04 05:16:00,
2013-05-04 01:31:00,45.7,36.0,30.53,NW,319,1.0,2.0,68,0.00,,,0.00,weatherlink.com 1.10,2013-05-04 05:31:00,
2013-05-04 01:46:00,45.0,35.0,30.53,NW,319,1.0,1.0,69,0.00,,,0.00,weatherlink.com 1.10,2013-05-04 05:46:00,
2013-05-04 02:02:00,44.7,35.0,30.52,NW,319,2.0,2.0,70,0.00,,,0.00,weatherlink.com 1.10,2013-05-04 06:02:00,
2013-05-04 02:17:00,44.5,36.0,30.52,NW,319,0.0,1.0,71,0.00,,,0.00,weatherlink.com 1.10,2013-05-04 06:17:00,
2013-05-04 02:32:00,44.1,36.0,30.52,NW,319,1.0,2.0,72,0.00,,,0.00,weatherlink.com 1.10,2013-05-04 06:32:00,
2013-05-04 02:47:00,43.8,36.0,30.51,NW,319,1.0,2.0,73,0.00,,,0.00,weatherlink.com 1.10,2013-05-04 06:47:00,
2013-05-04 03:02:00,43.4,35.0,30.51,NW,322,1.0,2.0,72,0.00,,,0.00,weatherlink.com 1.10,2013-05-04 07:02:00,
2013-05-04 03:17:00,43.2,34.0,30.51,NW,322,1.0,2.0,71,0.00,,,0.00,weatherlink.com 1.10,2013-05-04 07:17:00,
2013-05-04 03:32:00,42.8,35.0,30.51,NW,322,1.0,2.0,73,0.00,,,0.00,weatherlink.com 1.10,2013-05-04 07:32:00,
2013-05-04 03:47:00,42.7,35.0,30.51,NW,322,0.0,2.0,73,0.00,,,0.00,weatherlink.com 1.10,2013-05-04 07:47:00,
2013-05-04 04:02:00,42.6,35.0,30.51,NW,322,1.0,1.0,75,0.00,,,0.00,weatherlink.com 1.10,2013-05-04 08:02:00,
2013-05-04 04:17:00,42.5,35.0,30.50,NW,322,1.0,1.0,76,0.00,,,0.00,weatherlink.com 1.10,2013-05-04 08:17:00,
2013-05-04 04:32:00,42.1,35.0,30.51,NW,322,0.0,1.0,77,0.00,,,0.00,weatherlink.com 1.10,2013-05-04 08:32:00,
2013-05-04 04:47:00,41.7,35.0,30.50,NW,322,0.0,1.0,77,0.00,,,0.00,weatherlink.com 1.10,2013-05-04 08:47:00,
2013-05-04 05:02:00,41.3,34.0,30.51,NW,322,0.0,1.0,75,0.00,,,0.00,weatherlink.com 1.10,2013-05-04 09:02:00,
2013-05-04 05:17:00,41.1,34.0,30.51,NW,322,0.0,1.0,76,0.00,,,0.00,weatherlink.com 1.10,2013-05-04 09:17:00,
2013-05-04 05:32:00,41.1,34.0,30.51,NW,322,0.0,1.0,75,0.00,,,0.00,weatherlink.com 1.10,2013-05-04 09:32:00,
2013-05-04 05:47:00,40.9,34.0,30.51,NW,322,1.0,2.0,76,0.00,,,0.00,weatherlink.com 1.10,2013-05-04 09:47:00,
2013-05-04 06:02:00,41.3,34.0,30.52,NW,322,1.0,2.0,75,0.00,,,0.00,weatherlink.com 1.10,2013-05-04 10:02:00,
2013-05-04 06:17:00,41.7,34.0,30.52,NW,322,1.0,2.0,75,0.00,,,0.00,weatherlink.com 1.10,2013-05-04 10:17:00,
2013-05-04 06:32:00,42.3,35.0,30.52,NW,321,1.0,1.0,75,0.00,,,0.00,weatherlink.com 1.10,2013-05-04 10:32:00,
2013-05-04 06:47:00,43.5,36.0,30.52,NW,322,0.0,0.0,74,0.00,,,0.00,weatherlink.com 1.10,2013-05-04 10:47:00,
2013-05-04 07:02:00,44.3,36.0,30.52,NW,322,0.0,0.0,73,0.00,,,0.00,weatherlink.com 1.10,2013-05-04 11:02:00,
2013-05-04 07:17:00,45.8,37.0,30.52,NW,322,0.0,0.0,71,0.00,,,0.00,weatherlink.com 1.10,2013-05-04 11:17:00,
2013-05-04 07:32:00,46.4,37.0,30.52,SSE,168,0.0,1.0,69,0.00,,,0.00,weatherlink.com 1.10,2013-05-04 11:32:00,
2013-05-04 07:47:00,48.5,38.0,30.52,SSE,150,0.0,2.0,68,0.00,,,0.00,weatherlink.com 1.10,2013-05-04 11:47:00,
2013-05-04 08:02:00,50.3,39.0,30.52,SE,134,1.0,3.0,65,0.00,,,0.00,weatherlink.com 1.10,2013-05-04 12:02:00,
2013-05-04 08:32:00,55.1,40.0,30.52,SSE,156,3.0,5.0,57,0.00,,,0.00,weatherlink.com 1.10,2013-05-04 12:32:00,
2013-05-04 08:47:00,55.9,39.0,30.52,SSW,200,2.0,7.0,54,0.00,,,0.00,weatherlink.com 1.10,2013-05-04 12:47:00,
2013-05-04 09:03:00,57.9,39.0,30.52,South,179,3.0,9.0,50,0.00,,,0.00,weatherlink.com 1.10,2013-05-04 13:03:00,
2013-05-04 09:18:00,58.4,40.0,30.51,SW,225,3.0,8.0,51,0.00,,,0.00,weatherlink.com 1.10,2013-05-04 13:18:00,
2013-05-04 09:33:00,59.9,39.0,30.51,South,191,8.0,8.0,47,0.00,,,0.00,weatherlink.com 1.10,2013-05-04 13:33:00,
2013-05-04 09:48:00,60.6,41.0,30.51,SSW,198,5.0,9.0,48,0.00,,,0.00,weatherlink.com 1.10,2013-05-04 13:48:00,
2013-05-04 10:03:00,61.1,41.0,30.51,North,5,3.0,9.0,47,0.00,,,0.00,weatherlink.com 1.10,2013-05-04 14:03:00,
2013-05-04 10:18:00,62.1,40.0,30.50,SSE,155,6.0,8.0,45,0.00,,,0.00,weatherlink.com 1.10,2013-05-04 14:18:00,
2013-05-04 10:33:00,61.7,41.0,30.50,SSE,161,5.0,13.0,46,0.00,,,0.00,weatherlink.com 1.10,2013-05-04 14:33:00,
2013-05-04 10:48:00,63.2,40.0,30.49,ESE,107,4.0,8.0,43,0.00,,,0.00,weatherlink.com 1.10,2013-05-04 14:48:00,
2013-05-04 11:03:00,63.7,42.0,30.49,SSE,150,4.0,9.0,45,0.00,,,0.00,weatherlink.com 1.10,2013-05-04 15:03:00,
2013-05-04 11:18:00,63.3,40.0,30.48,NW,316,0.0,8.0,43,0.00,,,0.00,weatherlink.com 1.10,2013-05-04 15:18:00,
2013-05-04 11:33:00,65.9,43.0,30.48,NNE,17,4.0,6.0,44,0.00,,,0.00,weatherlink.com 1.10,2013-05-04 15:33:00,
2013-05-04 11:48:00,65.9,43.0,30.47,SW,232,8.0,9.0,44,0.00,,,0.00,weatherlink.com 1.10,2013-05-04 15:48:00,
2013-05-04 12:03:00,66.2,42.0,30.47,South,184,3.0,9.0,42,0.00,,,0.00,weatherlink.com 1.10,2013-05-04 16:03:00,
2013-05-04 12:18:00,65.8,43.0,30.47,WNW,299,1.0,8.0,44,0.00,,,0.00,weatherlink.com 1.10,2013-05-04 16:18:00,
2013-05-04 12:33:00,65.9,43.0,30.46,SW,214,2.0,12.0,44,0.00,,,0.00,weatherlink.com 1.10,2013-05-04 16:33:00,
2013-05-04 12:48:00,65.4,41.0,30.46,ESE,109,3.0,12.0,41,0.00,,,0.00,weatherlink.com 1.10,2013-05-04 16:48:00,
2013-05-04 13:03:00,66.2,43.0,30.45,SW,214,4.0,8.0,44,0.00,,,0.00,weatherlink.com 1.10,2013-05-04 17:03:00,
2013-05-04 13:18:00,67.1,41.0,30.45,ENE,77,4.0,7.0,39,0.00,,,0.00,weatherlink.com 1.10,2013-05-04 17:18:00,
2013-05-04 13:33:00,67.4,39.0,30.45,NW,309,0.0,6.0,36,0.00,,,0.00,weatherlink.com 1.10,2013-05-04 17:33:00,
2013-05-04 13:48:00,67.8,38.0,30.44,NW,312,3.0,10.0,33,0.00,,,0.00,weatherlink.com 1.10,2013-05-04 17:48:00,
2013-05-04 14:03:00,69.0,39.0,30.43,SW,236,1.0,7.0,33,0.00,,,0.00,weatherlink.com 1.10,2013-05-04 18:03:00,
2013-05-04 14:18:00,68.6,36.0,30.43,NNW,328,5.0,8.0,30,0.00,,,0.00,weatherlink.com 1.10,2013-05-04 18:18:00,
2013-05-04 14:33:00,70.0,37.0,30.43,NNW,345,3.0,4.0,30,0.00,,,0.00,weatherlink.com 1.10,2013-05-04 18:33:00,
2013-05-04 14:48:00,69.9,38.0,30.43,SE,126,2.0,7.0,31,0.00,,,0.00,weatherlink.com 1.10,2013-05-04 18:48:00,
2013-05-04 15:03:00,70.1,40.0,30.41,SW,232,4.0,9.0,34,0.00,,,0.00,weatherlink.com 1.10,2013-05-04 19:03:00,
2013-05-04 15:18:00,69.4,39.0,30.41,NW,311,5.0,11.0,33,0.00,,,0.00,weatherlink.com 1.10,2013-05-04 19:18:00,
2013-05-04 15:33:00,69.1,39.0,30.41,SSE,156,6.0,12.0,34,0.00,,,0.00,weatherlink.com 1.10,2013-05-04 19:33:00,
2013-05-04 15:48:00,68.9,41.0,30.41,SW,215,3.0,10.0,36,0.00,,,0.00,weatherlink.com 1.10,2013-05-04 19:48:00,
2013-05-04 16:03:00,69.1,41.0,30.40,SW,214,4.0,7.0,36,0.00,,,0.00,weatherlink.com 1.10,2013-05-04 20:03:00,
2013-05-04 16:19:00,68.6,40.0,30.40,WSW,239,1.0,9.0,35,0.00,,,0.00,weatherlink.com 1.10,2013-05-04 20:19:00,
2013-05-04 16:34:00,68.9,39.0,30.39,NNE,12,1.0,6.0,34,0.00,,,0.00,weatherlink.com 1.10,2013-05-04 20:34:00,
2013-05-04 16:49:00,69.0,39.0,30.39,ENE,68,2.0,8.0,34,0.00,,,0.00,weatherlink.com 1.10,2013-05-04 20:49:00,
2013-05-04 17:04:00,68.3,40.0,30.39,SW,228,4.0,9.0,35,0.00,,,0.00,weatherlink.com 1.10,2013-05-04 21:04:00,
2013-05-04 17:19:00,67.5,39.0,30.39,ENE,77,4.0,12.0,36,0.00,,,0.00,weatherlink.com 1.10,2013-05-04 21:19:00,
2013-05-04 17:34:00,66.3,38.0,30.39,SW,223,5.0,7.0,35,0.00,,,0.00,weatherlink.com 1.10,2013-05-04 21:34:00,
2013-05-04 17:49:00,65.4,38.0,30.39,WSW,239,8.0,10.0,37,0.00,,,0.00,weatherlink.com 1.10,2013-05-04 21:49:00,
2013-05-04 18:04:00,65.0,38.0,30.39,SW,214,1.0,8.0,37,0.00,,,0.00,weatherlink.com 1.10,2013-05-04 22:04:00,
2013-05-04 18:19:00,64.6,38.0,30.39,SSE,160,2.0,8.0,38,0.00,,,0.00,weatherlink.com 1.10,2013-05-04 22:19:00,
2013-05-04 18:34:00,64.1,38.0,30.39,SSE,157,4.0,11.0,38,0.00,,,0.00,weatherlink.com 1.10,2013-05-04 22:34:00,
2013-05-04 18:49:00,63.5,38.0,30.39,SW,229,0.0,6.0,39,0.00,,,0.00,weatherlink.com 1.10,2013-05-04 22:49:00,
2013-05-04 19:04:00,62.7,38.0,30.39,East,88,4.0,8.0,40,0.00,,,0.00,weatherlink.com 1.10,2013-05-04 23:04:00,
2013-05-04 19:19:00,62.4,38.0,30.39,NNE,23,0.0,8.0,40,0.00,,,0.00,weatherlink.com 1.10,2013-05-04 23:19:00,
2013-05-04 19:34:00,61.7,38.0,30.39,South,172,0.0,3.0,42,0.00,,,0.00,weatherlink.com 1.10,2013-05-04 23:34:00,
2013-05-04 19:49:00,60.2,38.0,30.39,SE,142,1.0,2.0,44,0.00,,,0.00,weatherlink.com 1.10,2013-05-04 23:49:00,
2013-05-04 20:04:00,59.0,39.0,30.39,NW,324,1.0,2.0,47,0.00,,,0.00,weatherlink.com 1.10,2013-05-05 00:04:00,
2013-05-04 20:19:00,58.4,39.0,30.40,NW,319,2.0,2.0,48,0.00,,,0.00,weatherlink.com 1.10,2013-05-05 00:19:00,
2013-05-04 20:34:00,57.5,39.0,30.40,NW,325,1.0,2.0,50,0.00,,,0.00,weatherlink.com 1.10,2013-05-05 00:34:00,
2013-05-04 20:49:00,57.7,39.0,30.41,SSW,196,3.0,5.0,50,0.00,,,0.00,weatherlink.com 1.10,2013-05-05 00:49:00,
2013-05-04 21:04:00,58.2,40.0,30.42,SW,221,1.0,7.0,52,0.00,,,0.00,weatherlink.com 1.10,2013-05-05 01:04:00,
2013-05-04 21:19:00,57.1,41.0,30.42,SW,227,4.0,8.0,55,0.00,,,0.00,weatherlink.com 1.10,2013-05-05 01:19:00,
2013-05-04 21:34:00,56.1,41.0,30.43,South,190,3.0,10.0,58,0.00,,,0.00,weatherlink.com 1.10,2013-05-05 01:34:00,
2013-05-04 21:49:00,55.2,41.0,30.43,SSE,167,2.0,5.0,60,0.00,,,0.00,weatherlink.com 1.10,2013-05-05 01:49:00,
2013-05-04 22:04:00,54.6,42.0,30.43,SSE,167,5.0,11.0,62,0.00,,,0.00,weatherlink.com 1.10,2013-05-05 02:04:00,
2013-05-04 22:19:00,54.0,42.0,30.43,SSW,205,0.0,6.0,63,0.00,,,0.00,weatherlink.com 1.10,2013-05-05 02:19:00,
2013-05-04 22:34:00,53.5,41.0,30.43,SE,128,1.0,5.0,64,0.00,,,0.00,weatherlink.com 1.10,2013-05-05 02:34:00,
2013-05-04 22:49:00,52.4,42.0,30.43,NNW,347,0.0,3.0,67,0.00,,,0.00,weatherlink.com 1.10,2013-05-05 02:49:00,
2013-05-04 23:04:00,51.6,42.0,30.43,SW,214,0.0,1.0,69,0.00,,,0.00,weatherlink.com 1.10,2013-05-05 03:04:00,
2013-05-04 23:19:00,50.7,42.0,30.44,SSW,204,0.0,5.0,71,0.00,,,0.00,weatherlink.com 1.10,2013-05-05 03:19:00,
2013-05-04 23:34:00,50.3,42.0,30.43,ENE,58,0.0,1.0,73,0.00,,,0.00,weatherlink.com 1.10,2013-05-05 03:34:00,
2013-05-04 23:49:00,49.5,42.0,30.43,SW,222,0.0,2.0,74,0.00,,,0.00,weatherlink.com 1.10,2013-05-05 03:49:00,